RYR70PH EDDK-LIME

Flight info

Callsign RYR70PH
Flight time 1h 12m
Altitude 36000
Route KUMIK1R KUMIK Y854 BOMBI DCT GIGET DCT ABUKA DCT KRH DCT NATOR/N0455F370 DCT TRA DCT RIPUS DCT GERSA DCT SOSON DCT ODINA
Aircraft B738/M-SDE2E3FGHIRWXY/LB1

Departure

Time 2026-04-25 17:33
Airport Cologne Bonn Airport (EDDK)

Arrival

Time 2026-04-25 18:45
Airport Il Caravaggio International Airport (LIME)
Time Latitude Longitude Altitude Speed Heading
2026-04-25 16:47 50.87687 7.12191 234 ft 0 kts 52°
2026-04-25 17:17 50.87686 7.12190 231 ft 2 kts 52°
2026-04-25 17:18 50.87671 7.12158 234 ft 4 kts 53°
2026-04-25 17:18 50.87657 7.12130 233 ft 2 kts 53°
2026-04-25 17:18 50.87644 7.12095 233 ft 4 kts 75°
2026-04-25 17:18 50.87644 7.12056 235 ft 4 kts 114°
2026-04-25 17:19 50.87646 7.12048 234 ft 0 kts 117°
2026-04-25 17:21 50.87641 7.12061 234 ft 4 kts 117°
2026-04-25 17:22 50.87618 7.12133 231 ft 9 kts 117°
2026-04-25 17:22 50.87598 7.12191 231 ft 9 kts 117°
2026-04-25 17:22 50.87560 7.12307 231 ft 9 kts 117°
2026-04-25 17:22 50.87542 7.12395 231 ft 8 kts 86°
2026-04-25 17:23 50.87581 7.12455 231 ft 8 kts 21°
2026-04-25 17:23 50.87634 7.12484 231 ft 8 kts 18°
2026-04-25 17:23 50.87689 7.12512 231 ft 9 kts 18°
2026-04-25 17:23 50.87746 7.12556 231 ft 9 kts 45°
2026-04-25 17:24 50.87770 7.12661 231 ft 12 kts 91°
2026-04-25 17:24 50.87707 7.12788 231 ft 18 kts 137°
2026-04-25 17:24 50.87601 7.12942 231 ft 23 kts 137°
2026-04-25 17:24 50.87484 7.13110 231 ft 23 kts 137°
2026-04-25 17:25 50.87369 7.13277 231 ft 22 kts 137°
2026-04-25 17:25 50.87257 7.13439 233 ft 21 kts 137°
2026-04-25 17:25 50.87149 7.13595 237 ft 21 kts 137°
2026-04-25 17:25 50.87043 7.13748 241 ft 20 kts 137°
2026-04-25 17:26 50.86941 7.13896 247 ft 20 kts 137°
2026-04-25 17:26 50.86842 7.14038 254 ft 19 kts 137°
2026-04-25 17:26 50.86734 7.14145 255 ft 18 kts 155°
2026-04-25 17:26 50.86637 7.14271 260 ft 18 kts 137°
2026-04-25 17:27 50.86549 7.14400 261 ft 17 kts 137°
2026-04-25 17:27 50.86463 7.14526 267 ft 16 kts 137°
2026-04-25 17:27 50.86381 7.14648 272 ft 16 kts 137°
2026-04-25 17:27 50.86354 7.14688 274 ft 16 kts 137°
2026-04-25 17:28 50.86226 7.14873 281 ft 15 kts 138°
2026-04-25 17:28 50.86152 7.14978 285 ft 14 kts 137°
2026-04-25 17:28 50.86082 7.15080 287 ft 13 kts 137°
2026-04-25 17:28 50.86043 7.15204 291 ft 13 kts 92°
2026-04-25 17:29 50.86081 7.15326 292 ft 13 kts 40°
2026-04-25 17:29 50.86161 7.15356 288 ft 9 kts 353°
2026-04-25 17:29 50.86214 7.15338 288 ft 6 kts 347°
2026-04-25 17:29 50.86219 7.15336 287 ft 0 kts 347°
2026-04-25 17:30 50.86221 7.15335 287 ft 1 kts 347°
2026-04-25 17:30 50.86246 7.15326 289 ft 8 kts 347°
2026-04-25 17:31 50.86320 7.15310 285 ft 12 kts 18°
2026-04-25 17:31 50.86358 7.15344 287 ft 5 kts 17°
2026-04-25 17:31 50.86375 7.15332 284 ft 0 kts 318°
2026-04-25 17:32 50.86391 7.15310 284 ft 0 kts 318°
2026-04-25 17:32 50.86405 7.15290 283 ft 8 kts 317°
2026-04-25 17:32 50.86620 7.14978 273 ft 78 kts 317°
2026-04-25 17:33 50.87183 7.14162 248 ft 139 kts 317°
2026-04-25 17:33 50.87978 7.13020 573 ft 159 kts 317°
2026-04-25 17:33 50.88846 7.11824 1231 ft 169 kts 321°
2026-04-25 17:33 50.89916 7.11232 2057 ft 167 kts
2026-04-25 17:34 50.90982 7.11911 2906 ft 165 kts 23°
2026-04-25 17:34 50.92040 7.12720 3579 ft 172 kts 20°
2026-04-25 17:34 50.93207 7.13530 4002 ft 195 kts 22°
2026-04-25 17:34 50.94217 7.15157 4207 ft 227 kts 59°
2026-04-25 17:35 50.94866 7.17517 4600 ft 242 kts 63°
2026-04-25 17:35 50.95540 7.20007 5119 ft 250 kts 62°
2026-04-25 17:35 50.96302 7.22620 5504 ft 269 kts 60°
2026-04-25 17:35 50.97125 7.25315 6285 ft 273 kts 60°
2026-04-25 17:36 50.97976 7.28042 7066 ft 277 kts 59°
2026-04-25 17:36 50.98844 7.30807 7798 ft 281 kts 59°
2026-04-25 17:36 50.99714 7.33568 8559 ft 284 kts 59°
2026-04-25 17:36 51.00602 7.36386 9359 ft 287 kts 59°
2026-04-25 17:37 51.01500 7.39255 10118 ft 293 kts 62°
2026-04-25 17:37 51.01968 7.42474 10564 ft 315 kts 89°
2026-04-25 17:37 51.01496 7.46021 10767 ft 341 kts 105°
2026-04-25 17:37 51.00746 7.49730 10925 ft 364 kts 107°
2026-04-25 17:38 50.99929 7.53647 11104 ft 384 kts 107°
2026-04-25 17:38 50.99645 7.55015 11223 ft 388 kts 107°
2026-04-25 17:38 50.98241 7.61909 12128 ft 399 kts 106°
2026-04-25 17:38 50.97401 7.66122 12814 ft 402 kts 106°
2026-04-25 17:39 50.96561 7.70375 13464 ft 407 kts 106°
2026-04-25 17:39 50.95709 7.74692 14098 ft 412 kts 106°
2026-04-25 17:39 50.94848 7.79044 14716 ft 416 kts 106°
2026-04-25 17:39 50.93835 7.83352 15343 ft 421 kts 117°
2026-04-25 17:40 50.92252 7.87295 16008 ft 424 kts 124°
2026-04-25 17:40 50.90550 7.91140 16657 ft 428 kts 124°
2026-04-25 17:40 50.88847 7.95034 17255 ft 433 kts 124°
2026-04-25 17:40 50.87154 7.99016 17862 ft 437 kts 123°
2026-04-25 17:41 50.85470 8.03039 18474 ft 441 kts 123°
2026-04-25 17:41 50.83677 8.07012 18977 ft 446 kts 132°
2026-04-25 17:41 50.81251 8.10075 19506 ft 447 kts 149°
2026-04-25 17:41 50.78593 8.12635 20085 ft 450 kts 149°
2026-04-25 17:42 50.75908 8.15245 20582 ft 454 kts 149°
2026-04-25 17:42 50.73225 8.17886 21066 ft 457 kts 149°
2026-04-25 17:42 50.71437 8.19661 21392 ft 460 kts 149°
2026-04-25 17:42 50.67836 8.23261 22044 ft 464 kts 149°
2026-04-25 17:43 50.65129 8.25976 22502 ft 467 kts 149°
2026-04-25 17:43 50.62375 8.28739 22941 ft 471 kts 149°
2026-04-25 17:43 50.59608 8.31511 23392 ft 474 kts 149°
2026-04-25 17:43 50.57720 8.33399 23692 ft 476 kts 148°
2026-04-25 17:44 50.54918 8.36198 24098 ft 478 kts 149°
2026-04-25 17:44 50.52140 8.38966 24478 ft 480 kts 149°
2026-04-25 17:44 50.49302 8.41791 24833 ft 483 kts 149°
2026-04-25 17:44 50.46454 8.44622 25180 ft 486 kts 149°
2026-04-25 17:45 50.43587 8.47468 25532 ft 489 kts 149°
2026-04-25 17:45 50.41642 8.49395 25754 ft 491 kts 149°
2026-04-25 17:45 50.37800 8.53188 26196 ft 494 kts 150°
2026-04-25 17:45 50.35530 8.55267 26428 ft 495 kts 152°
2026-04-25 17:46 50.32403 8.57919 26738 ft 498 kts 153°
2026-04-25 17:46 50.29367 8.60400 27073 ft 500 kts 154°
2026-04-25 17:46 50.26298 8.62898 27394 ft 502 kts 154°
2026-04-25 17:46 50.23211 8.65432 27680 ft 504 kts 153°
2026-04-25 17:47 50.20091 8.68020 27953 ft 507 kts 153°
2026-04-25 17:47 50.16970 8.70626 28301 ft 508 kts 153°
2026-04-25 17:47 50.13858 8.73224 28758 ft 506 kts 153°
2026-04-25 17:47 50.10756 8.75799 29222 ft 505 kts 154°
2026-04-25 17:48 50.04105 8.78946 29982 ft 499 kts 176°
2026-04-25 17:48 50.00697 8.79131 30368 ft 494 kts 187°
2026-04-25 17:48 49.97304 8.78484 30762 ft 489 kts 192°
2026-04-25 17:49 49.93949 8.77702 31188 ft 486 kts 192°
2026-04-25 17:49 49.90605 8.76937 31574 ft 485 kts 192°
2026-04-25 17:49 49.87249 8.76205 31945 ft 484 kts 191°
2026-04-25 17:49 49.83916 8.75507 32322 ft 483 kts 191°
2026-04-25 17:50 49.80587 8.74828 32770 ft 480 kts 191°
2026-04-25 17:50 49.77321 8.74168 33189 ft 478 kts 191°
2026-04-25 17:50 49.74015 8.73498 33561 ft 477 kts 191°
2026-04-25 17:50 49.70737 8.72832 33926 ft 475 kts 191°
2026-04-25 17:51 49.67459 8.72165 34290 ft 474 kts 191°
2026-04-25 17:51 49.64195 8.71499 34606 ft 472 kts 191°
2026-04-25 17:51 49.60940 8.70835 34865 ft 472 kts 191°
2026-04-25 17:51 49.57684 8.70170 35123 ft 472 kts 191°
2026-04-25 17:52 49.54438 8.69510 35405 ft 471 kts 191°
2026-04-25 17:52 49.52289 8.69074 35614 ft 470 kts 191°
2026-04-25 17:52 49.47959 8.68197 36005 ft 468 kts 191°
2026-04-25 17:53 49.41462 8.66878 36087 ft 473 kts 191°
2026-04-25 17:53 49.34970 8.65564 36092 ft 470 kts 191°
2026-04-25 17:54 49.28511 8.64262 36100 ft 466 kts 191°
2026-04-25 17:54 49.22090 8.62967 36099 ft 465 kts 191°
2026-04-25 17:55 49.15683 8.61679 36088 ft 464 kts 191°
2026-04-25 17:55 49.09282 8.60395 36097 ft 464 kts 191°
2026-04-25 17:56 49.02868 8.59112 36099 ft 465 kts 191°
2026-04-25 17:56 48.96467 8.57624 36088 ft 465 kts 194°
2026-04-25 17:57 48.90188 8.55574 36098 ft 465 kts 196°
2026-04-25 17:57 48.83811 8.53421 36104 ft 467 kts 195°
2026-04-25 17:58 48.77486 8.51344 36092 ft 469 kts 195°
2026-04-25 17:58 48.71093 8.49285 36090 ft 470 kts 195°
2026-04-25 17:59 48.64684 8.47233 36098 ft 470 kts 195°
2026-04-25 17:59 48.58273 8.45183 36093 ft 470 kts 195°
2026-04-25 18:00 48.51907 8.43152 36097 ft 469 kts 195°
2026-04-25 18:00 48.45515 8.41117 36098 ft 469 kts 195°
2026-04-25 18:01 48.39120 8.39086 36105 ft 469 kts 195°
2026-04-25 18:01 48.32720 8.37059 36097 ft 469 kts 195°
2026-04-25 18:02 48.26331 8.35039 36102 ft 469 kts 195°
2026-04-25 18:02 48.19930 8.33037 36100 ft 470 kts 193°
2026-04-25 18:03 48.13419 8.32774 36085 ft 476 kts 174°
2026-04-25 18:03 48.06886 8.34430 36103 ft 476 kts 172°
2026-04-25 18:04 48.00359 8.36125 36102 ft 475 kts 173°
2026-04-25 18:04 47.93834 8.37734 36104 ft 475 kts 173°
2026-04-25 18:05 47.87303 8.39306 36097 ft 475 kts 173°
2026-04-25 18:05 47.80825 8.40861 36103 ft 475 kts 173°
2026-04-25 18:06 47.74296 8.42430 36100 ft 475 kts 173°
2026-04-25 18:06 47.67963 8.43913 36096 ft 474 kts 175°
2026-04-25 18:07 47.61407 8.44949 36102 ft 473 kts 177°
2026-04-25 18:07 47.54847 8.45820 36104 ft 473 kts 177°
2026-04-25 18:08 47.48288 8.46742 36085 ft 473 kts 177°
2026-04-25 18:08 47.41734 8.47701 36099 ft 473 kts 176°
2026-04-25 18:09 47.35173 8.48663 36110 ft 473 kts 176°
2026-04-25 18:09 47.28609 8.49620 36104 ft 474 kts 177°
2026-04-25 18:10 47.22034 8.50576 36097 ft 474 kts 177°
2026-04-25 18:10 47.15464 8.51528 36097 ft 474 kts 177°
2026-04-25 18:11 47.08884 8.52480 36096 ft 475 kts 177°
2026-04-25 18:11 47.02343 8.53424 36088 ft 475 kts 177°
2026-04-25 18:12 46.95756 8.54375 36102 ft 475 kts 177°
2026-04-25 18:12 46.89173 8.55324 36091 ft 475 kts 177°
2026-04-25 18:13 46.82587 8.56271 36094 ft 477 kts 177°
2026-04-25 18:13 46.75966 8.57219 36095 ft 476 kts 177°
2026-04-25 18:14 46.66076 8.58632 35810 ft 478 kts 177°
2026-04-25 18:14 46.62760 8.59099 35223 ft 478 kts 177°
2026-04-25 18:14 46.59492 8.59568 34565 ft 478 kts 177°
2026-04-25 18:15 46.56168 8.60044 33810 ft 481 kts 177°
2026-04-25 18:15 46.52831 8.60518 33030 ft 482 kts 177°
2026-04-25 18:15 46.49486 8.60993 32288 ft 483 kts 177°
2026-04-25 18:15 46.46139 8.61468 31506 ft 484 kts 177°
2026-04-25 18:16 46.42789 8.61942 30741 ft 485 kts 177°
2026-04-25 18:16 46.39416 8.62418 29912 ft 487 kts 176°
2026-04-25 18:16 46.32660 8.63372 28052 ft 489 kts 176°
2026-04-25 18:17 46.29267 8.63850 27016 ft 491 kts 176°
2026-04-25 18:17 46.25867 8.64330 26310 ft 489 kts 176°
2026-04-25 18:17 46.22488 8.64805 25617 ft 485 kts 175°
2026-04-25 18:17 46.19134 8.65273 24917 ft 481 kts 176°
2026-04-25 18:18 46.15859 8.65739 24316 ft 477 kts 173°
2026-04-25 18:18 46.12633 8.67022 23628 ft 477 kts 153°
2026-04-25 18:18 46.09890 8.69542 22932 ft 470 kts 138°
2026-04-25 18:18 46.07667 8.72918 22240 ft 462 kts 123°
2026-04-25 18:19 46.05989 8.76819 21626 ft 455 kts 117°
2026-04-25 18:19 46.04416 8.80754 20962 ft 452 kts 116°
2026-04-25 18:19 46.02864 8.84672 20307 ft 449 kts 117°
2026-04-25 18:19 46.01319 8.88539 19700 ft 444 kts 117°
2026-04-25 18:20 45.99771 8.92365 19084 ft 440 kts 117°
2026-04-25 18:20 45.98230 8.96136 18487 ft 436 kts 118°
2026-04-25 18:20 45.96691 8.99873 17823 ft 432 kts 118°
2026-04-25 18:20 45.95157 9.03585 17161 ft 428 kts 118°
2026-04-25 18:21 45.93642 9.07240 16560 ft 423 kts 118°
2026-04-25 18:21 45.92145 9.10850 15944 ft 418 kts 119°
2026-04-25 18:21 45.90667 9.14410 15614 ft 407 kts 119°
2026-04-25 18:21 45.89248 9.17823 15459 ft 392 kts 119°
2026-04-25 18:22 45.87865 9.21146 15294 ft 380 kts 119°
2026-04-25 18:22 45.87411 9.22236 15233 ft 376 kts 119°
2026-04-25 18:22 45.85241 9.27446 14985 ft 357 kts 119°
2026-04-25 18:22 45.83981 9.30469 14852 ft 346 kts 119°
2026-04-25 18:23 45.82758 9.33397 14714 ft 337 kts 119°
2026-04-25 18:23 45.81570 9.36235 14569 ft 328 kts 119°
2026-04-25 18:23 45.80415 9.38990 14357 ft 323 kts 119°
2026-04-25 18:23 45.79250 9.41766 14056 ft 321 kts 119°
2026-04-25 18:24 45.78116 9.44464 13756 ft 319 kts 120°
2026-04-25 18:24 45.76974 9.47179 13423 ft 317 kts 120°
2026-04-25 18:24 45.75836 9.49880 13085 ft 315 kts 120°
2026-04-25 18:24 45.74710 9.52557 12760 ft 313 kts 120°
2026-04-25 18:25 45.73591 9.55214 12453 ft 310 kts 120°
2026-04-25 18:25 45.72479 9.57847 12129 ft 308 kts 120°
2026-04-25 18:25 45.71371 9.60467 11833 ft 306 kts 120°
2026-04-25 18:25 45.70272 9.63067 11508 ft 304 kts 120°
2026-04-25 18:26 45.69178 9.65649 11201 ft 302 kts 120°
2026-04-25 18:26 45.68454 9.67354 10998 ft 301 kts 120°
2026-04-25 18:26 45.67333 9.69877 10684 ft 301 kts 127°
2026-04-25 18:26 45.65709 9.71747 10380 ft 302 kts 151°
2026-04-25 18:27 45.63811 9.72979 10189 ft 297 kts 156°
2026-04-25 18:27 45.61922 9.74109 10044 ft 290 kts 156°
2026-04-25 18:27 45.60069 9.75223 9774 ft 288 kts 155°
2026-04-25 18:27 45.58230 9.76349 9480 ft 287 kts 155°
2026-04-25 18:28 45.56402 9.77478 9202 ft 285 kts 155°
2026-04-25 18:28 45.54613 9.78587 9087 ft 277 kts 156°
2026-04-25 18:28 45.52853 9.79633 8957 ft 269 kts 162°
2026-04-25 18:29 45.49229 9.80507 8951 ft 265 kts 172°
2026-04-25 18:29 45.47407 9.80874 8969 ft 270 kts 172°
2026-04-25 18:30 45.41792 9.82073 9011 ft 271 kts 171°
2026-04-25 18:30 45.39934 9.82483 9006 ft 270 kts 171°
2026-04-25 18:30 45.38081 9.82893 9003 ft 270 kts 171°
2026-04-25 18:30 45.36222 9.83306 8997 ft 269 kts 171°
2026-04-25 18:31 45.34345 9.83724 8988 ft 269 kts 171°
2026-04-25 18:31 45.32600 9.84617 8936 ft 269 kts 143°
2026-04-25 18:31 45.31414 9.86567 8951 ft 263 kts 116°
2026-04-25 18:31 45.30809 9.88984 8950 ft 258 kts 104°
2026-04-25 18:32 45.30346 9.91428 8942 ft 255 kts 104°
2026-04-25 18:32 45.29941 9.93876 8943 ft 254 kts 94°
2026-04-25 18:32 45.30029 9.96362 8951 ft 253 kts 82°
2026-04-25 18:32 45.30223 9.98891 8955 ft 259 kts 83°
2026-04-25 18:33 45.30398 10.01439 8955 ft 259 kts 83°
2026-04-25 18:33 45.30634 10.03964 8933 ft 257 kts 71°
2026-04-25 18:33 45.31342 10.06260 8952 ft 253 kts 62°
2026-04-25 18:33 45.32107 10.08505 8940 ft 252 kts 63°
2026-04-25 18:34 45.32857 10.10767 8939 ft 253 kts 63°
2026-04-25 18:34 45.33680 10.12968 8932 ft 252 kts 50°
2026-04-25 18:34 45.34895 10.14744 8943 ft 250 kts 42°
2026-04-25 18:34 45.36142 10.16472 8937 ft 251 kts 43°
2026-04-25 18:35 45.37383 10.18224 8937 ft 251 kts 44°
2026-04-25 18:35 45.38687 10.19872 8920 ft 250 kts 30°
2026-04-25 18:35 45.40229 10.20917 8941 ft 249 kts 23°
2026-04-25 18:35 45.41806 10.21930 8932 ft 249 kts 24°
2026-04-25 18:36 45.43381 10.22969 8933 ft 249 kts 24°
2026-04-25 18:36 45.44960 10.23995 8837 ft 253 kts 19°
2026-04-25 18:36 45.46699 10.24212 8650 ft 254 kts 346°
2026-04-25 18:36 45.48254 10.23109 8418 ft 252 kts 317°
2026-04-25 18:37 45.49217 10.21071 8192 ft 249 kts 289°
2026-04-25 18:37 45.49517 10.18661 7977 ft 247 kts 274°
2026-04-25 18:37 45.49570 10.16224 7747 ft 245 kts 272°
2026-04-25 18:37 45.49590 10.13800 7512 ft 244 kts 272°
2026-04-25 18:38 45.49616 10.11386 7293 ft 242 kts 272°
2026-04-25 18:38 45.49653 10.08996 7075 ft 240 kts 272°
2026-04-25 18:38 45.49694 10.06624 6858 ft 239 kts 272°
2026-04-25 18:38 45.49738 10.04272 6637 ft 237 kts 272°
2026-04-25 18:39 45.49783 10.01930 6434 ft 236 kts 272°
2026-04-25 18:39 45.49878 9.99596 6196 ft 234 kts 283°
2026-04-25 18:39 45.50620 9.97607 5958 ft 232 kts 315°
2026-04-25 18:39 45.51998 9.96426 5690 ft 234 kts 342°
2026-04-25 18:40 45.53612 9.96124 5432 ft 235 kts 357°
2026-04-25 18:40 45.55252 9.96064 5161 ft 235 kts 357°
2026-04-25 18:40 45.56843 9.96007 4876 ft 232 kts 357°
2026-04-25 18:40 45.58455 9.95946 4561 ft 228 kts 356°
2026-04-25 18:41 45.60031 9.95873 4266 ft 224 kts 356°
2026-04-25 18:41 45.61555 9.95610 3950 ft 219 kts 336°
2026-04-25 18:41 45.62578 9.94187 3726 ft 203 kts 289°
2026-04-25 18:41 45.62887 9.92262 3519 ft 196 kts 282°
2026-04-25 18:42 45.63195 9.90381 3297 ft 192 kts 283°
2026-04-25 18:42 45.63406 9.89161 3139 ft 190 kts 284°
2026-04-25 18:42 45.63812 9.86820 2999 ft 169 kts 284°
2026-04-25 18:42 45.64097 9.85228 3009 ft 167 kts 284°
2026-04-25 18:43 45.64392 9.83589 2581 ft 174 kts 284°
2026-04-25 18:43 45.64688 9.81962 2208 ft 163 kts 284°
2026-04-25 18:43 45.64974 9.80481 1971 ft 149 kts 284°
2026-04-25 18:43 45.65234 9.79067 1759 ft 146 kts 283°
2026-04-25 18:44 45.65494 9.77666 1598 ft 147 kts 284°
2026-04-25 18:44 45.65757 9.76248 1414 ft 150 kts 283°
2026-04-25 18:44 45.66028 9.74785 1185 ft 151 kts 284°
2026-04-25 18:44 45.66293 9.73360 978 ft 146 kts 283°
2026-04-25 18:45 45.66547 9.71971 796 ft 143 kts 283°
2026-04-25 18:45 45.66772 9.70744 786 ft 102 kts 285°
2026-04-25 18:45 45.66893 9.70098 786 ft 22 kts 285°
2026-04-25 18:45 45.66895 9.70019 786 ft 8 kts 252°
2026-04-25 18:46 45.66865 9.69934 789 ft 10 kts 240°
2026-04-25 18:46 45.66830 9.69848 786 ft 10 kts 239°
2026-04-25 18:46 45.66797 9.69762 786 ft 10 kts 252°
2026-04-25 18:46 45.66802 9.69689 786 ft 0 kts 284°
2026-04-25 18:47 45.66802 9.69688 786 ft 1 kts 284°
2026-04-25 18:47 45.66806 9.69668 786 ft 4 kts 284°
2026-04-25 18:47 45.66814 9.69613 786 ft 7 kts 274°
2026-04-25 18:48 45.66775 9.69572 786 ft 4 kts 195°
2026-04-25 18:48 45.66748 9.69563 786 ft 4 kts 195°
2026-04-25 18:48 45.66731 9.69556 786 ft 2 kts 195°
2026-04-25 18:48 45.66729 9.69556 786 ft 0 kts 195°